User: anonymous   Login
Location: Unspecified
(0.0000°N, 0.0000°E)
Time: 23:17:20
(UTC+00:00)
Language:

STARLINK-31171 - Orbit

View from above orbital plane
View from above orbital plane
View from above satellite
View from above satellite

Ground track
Ground track

The orbit is defined by the following mean orbital elements,

1 58834U          26145.37954080 +.00000000 +00000-0 +25115-4 0 00003
2 58834  53.1590 184.5460 0001133  76.4044 283.7083 15.30195293    03
Epoch (UTC): 25 May 2026 09:06:32
Eccentricity: 0.0001133
inclination: 53.1590°
perigee height: 474 km
apogee height: 476 km
right ascension of ascending node: 184.5460°
argument of perigee: 76.4044°
revolutions per day: 15.30195293
mean anomaly at epoch: 283.7083°

The dashed part of the orbit path shows where the satellite is in the earth's shadow,  

DLR